Location: Carthage
(33.8834°N, 106.6595°W)
Time: 02:41:00
(UTC+00:00)

Cosmos 2322 Rocket - Pass Details

Date: 23 May 2026
Orbit: 831 x 850 km, 71.0° (Epoch: 9 June)

Event Time Altitude Azimuth Distance (km) Brightness Sun altitude
Rises 05:04:37 0° 316° (NW) 3,409 6.5 -28.6°
Reaches altitude 10° 05:08:15 10° 292° (WNW) 2,472 5.2 -29.0°
Maximum altitude 05:11:06 14° 262° (W) 2,184 4.5 -29.3°
Enters shadow 05:13:02 12° 240° (WSW) 2,319 4.5 -29.5°
